Total_Precipitation_Accumulation
0.88 0.81 0.74 0.72 0.71 0.62 0.54 0.50 0.41 0.39 0.35 0.30 0.23 0.19 0.17 0.16 0.15 0.17 0.18 0.18 0.22 0.29 0.38 0.45 0.52 0.58 0.60 0.61 0.64 0.64 0.59 0.57 0.55 0.53 0.52 0.52 0.52 0.53 0.52 0.51 0.51 0.51 0.52
1.04 0.91 0.82 0.78 0.73 0.67 0.61 0.55 0.47 0.45 0.43 0.38 0.30 0.24 0.22 0.20 0.18 0.18 0.18 0.19 0.20 0.22 0.31 0.43 0.55 0.65 0.69 0.74 0.79 0.81 0.76 0.71 0.68 0.65 0.64 0.63 0.61 0.59 0.60 0.61 0.58 0.60 0.62
1.32 1.16 1.01 0.87 0.75 0.70 0.69 0.69 0.67 0.61 0.53 0.46 0.37 0.32 0.28 0.26 0.23 0.20 0.20 0.20 0.19 0.21 0.26 0.37 0.47 0.55 0.62 0.72 0.83 0.90 0.90 0.88 0.86 0.82 0.77 0.75 0.74 0.73 0.73 0.73 0.74 0.76 0.79
1.44 1.35 1.16 1.02 0.94 0.90 0.86 0.81 0.78 0.74 0.63 0.53 0.45 0.42 0.37 0.32 0.28 0.27 0.26 0.23 0.21 0.20 0.22 0.31 0.37 0.41 0.51 0.64 0.78 0.90 0.93 0.92 0.90 0.88 0.83 0.81 0.80 0.80 0.82 0.83 0.86 0.90 0.96
1.48 1.41 1.27 1.14 1.12 1.09 0.99 0.89 0.83 0.76 0.71 0.65 0.59 0.53 0.48 0.42 0.39 0.40 0.39 0.36 0.32 0.28 0.26 0.31 0.32 0.33 0.40 0.51 0.64 0.81 0.95 0.96 0.95 0.95 0.95 0.92 0.90 0.90 0.91 0.94 0.98 1.04 1.14
1.54 1.48 1.40 1.30 1.22 1.23 1.17 1.07 0.96 0.89 0.81 0.75 0.70 0.66 0.61 0.55 0.49 0.48 0.46 0.45 0.44 0.40 0.37 0.36 0.36 0.34 0.34 0.41 0.50 0.65 0.84 0.95 0.98 0.99 1.00 1.02 1.01 0.99 1.02 1.09 1.18 1.27 1.40
1.61 1.53 1.41 1.42 1.39 1.31 1.26 1.23 1.19 1.14 1.05 0.99 0.96 0.84 0.70 0.63 0.58 0.52 0.51 0.50 0.48 0.48 0.47 0.45 0.43 0.40 0.39 0.41 0.46 0.55 0.67 0.84 1.03 1.10 1.09 1.06 1.08 1.14 1.23 1.31 1.41 1.52 1.62
1.66 1.61 1.51 1.39 1.42 1.44 1.37 1.34 1.33 1.33 1.29 1.25 1.22 1.18 1.00 0.82 0.63 0.53 0.52 0.53 0.54 0.57 0.60 0.59 0.55 0.51 0.48 0.48 0.48 0.51 0.59 0.68 0.86 1.09 1.20 1.22 1.24 1.29 1.45 1.62 1.74 1.83 1.91
1.85 1.70 1.69 1.62 1.48 1.48 1.44 1.36 1.29 1.28 1.30 1.32 1.29 1.37 1.25 0.98 0.75 0.61 0.53 0.51 0.52 0.55 0.58 0.61 0.60 0.58 0.54 0.50 0.46 0.46 0.50 0.56 0.69 0.92 1.19 1.39 1.47 1.59 1.75 1.95 2.14 2.28 2.32
2.12 2.03 1.90 1.84 1.71 1.61 1.54 1.52 1.50 1.42 1.39 1.37 1.34 1.25 1.17 1.03 0.97 0.82 0.63 0.57 0.55 0.55 0.58 0.59 0.56 0.57 0.60 0.60 0.58 0.57 0.58 0.61 0.72 0.88 1.14 1.42 1.66 1.90 2.16 2.34 2.46 2.57 2.59
2.17 2.12 2.05 1.99 1.87 1.75 1.71 1.71 1.66 1.63 1.59 1.50 1.43 1.34 1.29 1.12 1.01 1.02 0.82 0.64 0.64 0.62 0.64 0.64 0.62 0.60 0.61 0.65 0.66 0.70 0.74 0.74 0.82 0.98 1.26 1.57 1.93 2.27 2.57 2.76 2.82 2.75 2.67
2.35 2.17 2.06 2.02 1.97 1.90 1.84 1.84 1.85 1.79 1.70 1.62 1.58 1.52 1.48 1.40 1.20 1.16 1.08 0.85 0.79 0.72 0.72 0.72 0.73 0.73 0.72 0.73 0.75 0.83 0.82 0.82 0.88 1.04 1.35 1.69 1.91 2.13 2.34 2.60 2.79 2.85 2.85
2.29 2.23 2.11 2.06 2.04 1.94 1.89 1.89 1.86 1.80 1.77 1.70 1.67 1.64 1.57 1.47 1.38 1.41 1.44 1.26 1.10 0.92 0.85 0.82 0.79 0.78 0.79 0.80 0.82 0.92 0.88 0.93 0.97 1.01 1.20 1.54 1.71 1.74 1.79 1.97 2.28 2.55 2.73
2.19 2.22 2.21 2.08 2.04 2.00 1.90 1.85 1.81 1.73 1.72 1.71 1.64 1.62 1.60 1.53 1.51 1.54 1.60 1.65 1.55 1.26 1.05 0.92 0.87 0.91 0.94 0.95 0.97 1.01 0.86 0.92 0.91 0.95 1.03 1.18 1.26 1.24 1.28 1.42 1.65 1.92 2.15
2.04 2.06 2.08 1.99 1.90 1.88 1.83 1.79 1.74 1.65 1.61 1.60 1.56 1.53 1.50 1.45 1.46 1.47 1.54 1.70 1.90 1.74 1.32 1.01 0.92 0.93 1.00 1.02 1.07 1.00 0.87 0.94 0.95 0.94 0.94 0.94 0.98 1.02 1.06 1.16 1.29 1.43 1.59
1.69 1.76 1.81 1.80 1.74 1.70 1.68 1.65 1.60 1.57 1.56 1.49 1.46 1.45 1.39 1.33 1.37 1.44 1.50 1.57 1.73 1.86 1.59 1.09 0.92 0.86 0.92 0.95 1.01 0.93 0.84 0.96 0.92 0.86 0.82 0.82 0.86 0.93 0.99 1.06 1.12 1.19 1.27
1.36 1.40 1.41 1.44 1.47 1.48 1.49 1.48 1.45 1.44 1.45 1.41 1.41 1.44 1.40 1.34 1.35 1.36 1.39 1.43 1.49 1.62 1.61 1.17 0.98 0.95 0.95 0.93 0.94 0.90 0.83 0.82 0.78 0.85 0.80 0.79 0.80 0.87 0.94 0.97 1.02 1.06 1.12
1.20 1.20 1.20 1.18 1.18 1.19 1.23 1.25 1.23 1.25 1.29 1.28 1.27 1.32 1.34 1.33 1.35 1.32 1.31 1.30 1.28 1.28 1.38 1.22 0.95 0.91 0.91 0.89 0.94 0.96 0.89 0.82 0.74 0.81 0.79 0.77 0.78 0.81 0.86 0.93 0.99 1.03 1.07
1.12 1.09 1.08 1.06 1.04 1.02 1.03 1.08 1.13 1.15 1.17 1.17 1.17 1.19 1.21 1.27 1.26 1.19 1.17 1.15 1.13 1.15 1.23 1.25 1.03 0.90 0.88 0.89 0.95 0.96 0.92 0.88 0.82 0.85 0.88 0.85 0.85 0.84 0.88 0.94 1.01 1.06 1.09
1.16 1.06 1.00 0.98 0.98 0.99 1.00 1.02 1.10 1.15 1.16 1.16 1.17 1.18 1.14 1.13 1.11 1.08 1.08 1.10 1.17 1.27 1.29 1.33 1.21 1.02 0.94 0.91 0.98 0.98 0.97 0.90 0.90 0.89 0.99 1.02 1.01 0.97 0.93 0.96 1.00 1.05 1.10
1.14 1.12 1.05 1.01 0.98 0.98 1.01 1.04 1.07 1.12 1.15 1.16 1.14 1.11 1.08 1.10 1.08 1.07 1.09 1.11 1.19 1.35 1.47 1.52 1.41 1.22 1.09 1.02 0.98 0.95 1.04 1.05 1.06 0.99 0.99 1.01 1.01 1.02 1.00 1.03 1.04 1.05 1.11
1.09 1.14 1.15 1.12 1.06 1.04 1.20 1.18 1.10 1.09 1.12 1.13 1.12 1.06 1.04 1.08 1.05 1.07 1.10 1.17 1.32 1.49 1.63 1.67 1.58 1.38 1.10 0.97 0.99 1.12 1.29 1.48 1.43 1.05 1.03 1.06 1.02 1.10 1.05 1.02 1.17 1.21 1.19
1.14 1.18 1.21 1.23 1.19 1.22 1.28 1.15 1.13 1.04 1.02 1.04 1.03 1.01 0.98 0.95 1.00 0.92 1.00 1.13 1.22 1.35 1.43 1.44 1.41 1.16 1.01 0.96 1.20 1.47 1.51 1.56 1.36 1.08 1.25 1.37 1.19 1.16 1.07 1.11 1.29 1.23 1.19
1.14 1.19 1.23 1.21 1.16 1.16 1.18 1.07 1.04 0.97 0.96 0.96 0.94 0.93 0.96 0.96 0.95 1.01 1.08 1.13 1.02 0.95 0.99 1.00 1.03 1.02 1.03 1.13 1.42 1.76 1.87 1.87 1.63 1.40 1.41 1.55 1.27 1.15 1.08 1.12 1.29 1.23 1.13
1.10 1.07 1.09 1.11 1.09 1.09 1.06 0.97 0.95 0.89 0.91 0.87 0.83 0.83 0.87 0.88 1.05 1.23 1.27 1.27 1.07 0.87 0.87 0.99 1.11 1.15 1.22 1.32 1.45 1.78 2.05 2.19 1.92 1.44 1.28 1.39 1.29 1.22 1.21 1.17 1.20 1.27 1.19
1.08 1.02 0.97 0.94 0.92 0.93 0.96 0.90 0.88 0.83 0.86 0.83 0.79 0.79 0.88 0.90 1.07 1.22 1.17 1.22 1.18 0.98 0.93 0.97 1.02 1.07 1.05 1.13 1.36 1.54 2.03 2.58 2.32 1.77 1.22 1.35 1.38 1.48 1.71 1.28 1.11 1.15 1.20